• Join FlightAware (Why Join?)
  • Login
  • US Flag GB Flag 
23:33 EST


 

Airport Tracker/Info


-or-


 

Live Flight TrackerFlight Track Log ✈ EJA831 ✈ 25-Jul-2013 ✈ KDAY - KMGN

Flight Track Log - Related Links

Times and Time Zones

All times are in EDT time to prevent confusion due to time zone crossing. See the EJA831 flight status page for this flight to view local times or setup timezone preferences in your user account.

Time Position Orientation Groundspeed Altitude Reporting Facility
EDT Latitude Longitude Course Direction KTS MPH feet Rate Location/Type
12:53 40.0019 -84.2275 352° North 231 266 8,200  Level Indianapolis Center
12:54 40.0747 -84.2383 354° North 251 289 11,700 3,300 Climbing Indianapolis Center
12:55 40.1522 -84.2464 355° North 273 314 15,100 2,940 Climbing Indianapolis Center
12:56 40.2325 -84.2536 356° North 284 327 17,800 2,220 Climbing Indianapolis Center
12:57 40.3181 -84.2639 355° North 301 346 19,800 2,040 Climbing Indianapolis Center
12:58 40.4108 -84.2747 355° North 326 375 22,100 2,100 Climbing Indianapolis Center
12:59 40.5042 -84.2847 355° North 332 382 24,200 2,100 Climbing Indianapolis Center
13:00 40.6186 -84.2989 355° North 347 399 26,500 1,980 Climbing Indianapolis Center
13:01 40.7175 -84.3100 355° North 352 405 28,300 1,740 Climbing Indianapolis Center
13:02 40.8178 -84.3225 355° North 358 412 30,100 1,680 Climbing Indianapolis Center
13:03 40.9206 -84.3342 355° North 364 419 31,800 900 Climbing Indianapolis Center
13:04 41.0256 -84.3467 355° North 373 429 32,000 60 Climbing Indianapolis Center
13:05 41.1394 -84.3589 355° North 402 463 32,000  Level Indianapolis Center
13:06 41.2517 -84.3733 354° North 402 463 32,000  Level Indianapolis Center
13:07 41.3767 -84.3878 355° North 403 464 32,000  Level Indianapolis Center
13:08 41.4897 -84.4019 355° North 402 463 32,000  Level Indianapolis Center
13:09 41.6019 -84.4147 355° North 404 465 32,000  Level Indianapolis Center
13:10 41.7139 -84.4286 355° North 400 460 32,000  Level Indianapolis Center
13:11 41.8258 -84.4431 355° North 400 460 32,000  Level Indianapolis Center
13:12 41.9383 -84.4553 355° North 409 471 32,000  Level Cleveland Center
13:13 42.0483 -84.4703 354° North 404 465 32,000  Level Cleveland Center
13:14 42.1561 -84.4881 353° North 404 465 32,000  Level Cleveland Center
13:15 42.2683 -84.5033 354° North 394 453 32,000  Level Cleveland Center
13:16 42.3783 -84.5131 356° North 394 453 32,000  Level Cleveland Center
13:17 42.4925 -84.5286 354° North 404 465 32,000  Level Cleveland Center
13:18 42.6025 -84.5439 354° North 404 465 32,000  Level Cleveland Center
13:19 42.7169 -84.5511 357° North 404 465 32,000  Level Cleveland Center
13:20 42.8311 -84.5697 353° North 409 471 32,000  Level Cleveland Center
13:21 42.9472 -84.5858 354° North 409 471 32,000  Level Cleveland Center
13:22 43.0575 -84.5956 356° North 404 465 32,000  Level Cleveland Center
13:24 43.2617 -84.6231 354° North 414 476 32,000  Level Minneapolis Center
13:25 43.3758 -84.6381 355° North 415 478 32,000  Level Minneapolis Center
13:26 43.4894 -84.6525 355° North 413 475 32,000  Level Minneapolis Center
13:27 43.6042 -84.6678 354° North 415 478 32,000  Level Minneapolis Center
13:28 43.7175 -84.6831 354° North 413 475 32,000  Level Minneapolis Center
13:29 43.8319 -84.6981 355° North 414 476 32,000  Level Minneapolis Center
13:30 43.9697 -84.7150 355° North 415 478 32,000  Level Minneapolis Center
13:31 44.0900 -84.7314 354° North 415 478 32,000 -1,260 Level Minneapolis Center
13:32 44.2042 -84.7464 355° North 414 476 29,500 -2,520 Descending Minneapolis Center
13:33 44.3167 -84.7617 354° North 411 473 26,900 -2,580 Descending Minneapolis Center
13:34 44.4283 -84.7772 354° North 407 468 24,200 -2,640 Descending Minneapolis Center
13:35 44.5369 -84.7919 354° North 396 456 21,500 -2,760 Descending Minneapolis Center
13:36 44.6606 -84.8083 355° North 379 436 18,500 -2,280 Descending Minneapolis Center
13:37 44.7608 -84.8211 355° North 368 423 16,900 -1,680 Descending Minneapolis Center
13:38 44.8600 -84.8367 354° North 342 394 15,100 -1,800 Descending Minneapolis Center
13:39 44.9494 -84.8489 354° North 328 377 13,200 -1,920 Descending Minneapolis Center
13:40 45.0300 -84.8611 354° North 300 345 11,200 -2,100 Descending Minneapolis Center
13:41 45.1186 -84.8714 355° North 290 334 8,900 -2,100 Descending Minneapolis Center
13:42 45.1947 -84.8814 355° North 283 326 6,900 -1,980 Descending Minneapolis Center